UAL2398 KFLL-KEWR

Flight info

Callsign UAL2398
Flight time N/A
Altitude 35000
Route FEALX2 ETECK GRUBR Y299 SEELO GARIC Q129 AARNN QUART PHLBO4
Aircraft B738/M-SDE2E3FGHIRWXY/LB1

Departure

Time N/A
Airport Fort Lauderdale Hollywood International Airport (KFLL)

Arrival

Time 2026-04-25 23:27
Airport Newark Liberty International Airport (KEWR)
Time Latitude Longitude Altitude Speed Heading
2026-04-25 23:02 38.72316 -76.67141 34969 ft 501 kts 32°
2026-04-25 23:02 38.75088 -76.64439 34965 ft 501 kts 32°
2026-04-25 23:02 38.80588 -76.59071 34987 ft 500 kts 32°
2026-04-25 23:03 38.86128 -76.53653 34980 ft 502 kts 33°
2026-04-25 23:03 38.91681 -76.48210 34981 ft 503 kts 32°
2026-04-25 23:04 38.97237 -76.42751 34845 ft 505 kts 33°
2026-04-25 23:04 39.00016 -76.40021 34223 ft 510 kts 33°
2026-04-25 23:04 39.02821 -76.37244 33588 ft 509 kts 35°
2026-04-25 23:05 39.05533 -76.34295 32875 ft 512 kts 38°
2026-04-25 23:05 39.08178 -76.31216 32163 ft 513 kts 39°
2026-04-25 23:05 39.10798 -76.28090 31448 ft 514 kts 40°
2026-04-25 23:05 39.13416 -76.24961 30719 ft 515 kts 39°
2026-04-25 23:06 39.16057 -76.21833 29923 ft 517 kts 39°
2026-04-25 23:06 39.18717 -76.18709 29031 ft 518 kts 39°
2026-04-25 23:06 39.21387 -76.15587 28176 ft 518 kts 39°
2026-04-25 23:06 39.24013 -76.12515 27526 ft 513 kts 39°
2026-04-25 23:07 39.26633 -76.09445 26934 ft 507 kts 39°
2026-04-25 23:07 39.29219 -76.06407 26507 ft 497 kts 39°
2026-04-25 23:07 39.31755 -76.03425 26087 ft 489 kts 39°
2026-04-25 23:07 39.34243 -76.00497 25678 ft 481 kts 40°
2026-04-25 23:08 39.36696 -75.97608 25280 ft 473 kts 40°
2026-04-25 23:08 39.39131 -75.94740 24897 ft 476 kts 40°
2026-04-25 23:08 39.41558 -75.91880 24505 ft 481 kts 40°
2026-04-25 23:08 39.44055 -75.88932 24074 ft 478 kts 40°
2026-04-25 23:09 39.46461 -75.86087 23669 ft 472 kts 40°
2026-04-25 23:09 39.48871 -75.83232 23205 ft 466 kts 40°
2026-04-25 23:09 39.51246 -75.80417 22775 ft 460 kts 40°
2026-04-25 23:09 39.53592 -75.77632 22363 ft 455 kts 40°
2026-04-25 23:10 39.57634 -75.72832 21673 ft 446 kts 40°
2026-04-25 23:10 39.62185 -75.67420 20926 ft 443 kts 39°
2026-04-25 23:10 39.66728 -75.62008 20192 ft 444 kts 39°
2026-04-25 23:10 39.71254 -75.56587 19363 ft 442 kts 39°
2026-04-25 23:11 39.75715 -75.51208 18484 ft 434 kts 39°
2026-04-25 23:11 39.80090 -75.45922 17525 ft 423 kts 39°
2026-04-25 23:11 39.84275 -75.40862 16649 ft 411 kts 39°
2026-04-25 23:11 39.88403 -75.35864 15841 ft 401 kts 39°
2026-04-25 23:12 39.92475 -75.30930 15029 ft 399 kts 39°
2026-04-25 23:12 39.96557 -75.25973 14232 ft 402 kts 39°
2026-04-25 23:12 40.00624 -75.21023 13371 ft 399 kts 39°
2026-04-25 23:12 40.04671 -75.16087 12500 ft 396 kts 40°
2026-04-25 23:13 40.08629 -75.11251 11709 ft 384 kts 40°
2026-04-25 23:13 40.12476 -75.06545 10950 ft 373 kts 40°
2026-04-25 23:13 40.15209 -75.03199 10446 ft 365 kts 40°
2026-04-25 23:13 40.17032 -75.00962 10124 ft 353 kts 40°
2026-04-25 23:14 40.18766 -74.98832 9875 ft 338 kts 40°
2026-04-25 23:14 40.20420 -74.96799 9867 ft 317 kts 40°
2026-04-25 23:14 40.21988 -74.94871 9473 ft 310 kts 40°
2026-04-25 23:14 40.23567 -74.92935 9007 ft 308 kts 40°
2026-04-25 23:15 40.25117 -74.91030 8640 ft 302 kts 40°
2026-04-25 23:15 40.26577 -74.89104 8351 ft 295 kts 44°
2026-04-25 23:15 40.27968 -74.87140 8096 ft 293 kts 45°
2026-04-25 23:15 40.29335 -74.85189 7980 ft 289 kts 45°
2026-04-25 23:16 40.30696 -74.83261 7948 ft 287 kts 45°
2026-04-25 23:16 40.32087 -74.81300 7507 ft 297 kts 45°
2026-04-25 23:16 40.33488 -74.79329 7254 ft 295 kts 45°
2026-04-25 23:16 40.34879 -74.77372 7048 ft 292 kts 45°
2026-04-25 23:17 40.36229 -74.75473 6833 ft 284 kts 45°
2026-04-25 23:17 40.37553 -74.73608 6618 ft 275 kts 45°
2026-04-25 23:17 40.38836 -74.71800 6428 ft 266 kts 46°
2026-04-25 23:17 40.40075 -74.70054 6225 ft 258 kts 46°
2026-04-25 23:18 40.41294 -74.68336 6046 ft 256 kts 47°
2026-04-25 23:18 40.42397 -74.66518 5851 ft 254 kts 68°
2026-04-25 23:18 40.42951 -74.64356 5730 ft 249 kts 77°
2026-04-25 23:18 40.43450 -74.62168 5553 ft 251 kts 77°
2026-04-25 23:19 40.43952 -74.59995 5390 ft 253 kts 78°
2026-04-25 23:19 40.44468 -74.57787 5202 ft 253 kts 78°
2026-04-25 23:19 40.44982 -74.55579 5023 ft 253 kts 78°
2026-04-25 23:19 40.45500 -74.53386 4834 ft 249 kts 79°
2026-04-25 23:20 40.46008 -74.51247 4657 ft 242 kts 79°
2026-04-25 23:20 40.46501 -74.49166 4470 ft 236 kts 80°
2026-04-25 23:20 40.46985 -74.47123 4317 ft 233 kts 80°
2026-04-25 23:20 40.47462 -74.45099 4169 ft 231 kts 79°
2026-04-25 23:21 40.47934 -74.43099 4007 ft 229 kts 79°
2026-04-25 23:21 40.48407 -74.41086 3886 ft 231 kts 79°
2026-04-25 23:21 40.48873 -74.39109 3696 ft 228 kts 79°
2026-04-25 23:21 40.49338 -74.37141 3538 ft 223 kts 79°
2026-04-25 23:22 40.49789 -74.35224 3392 ft 216 kts 78°
2026-04-25 23:22 40.50223 -74.33384 3252 ft 205 kts 78°
2026-04-25 23:22 40.50635 -74.31640 3097 ft 194 kts 78°
2026-04-25 23:23 40.51440 -74.28455 2809 ft 179 kts 65°
2026-04-25 23:23 40.52429 -74.27416 2823 ft 189 kts 32°
2026-04-25 23:23 40.53560 -74.26584 2804 ft 185 kts 40°
2026-04-25 23:23 40.54694 -74.25740 2544 ft 196 kts 33°
2026-04-25 23:24 40.55921 -74.24971 2178 ft 191 kts 32°
2026-04-25 23:24 40.57068 -74.24254 2063 ft 178 kts 33°
2026-04-25 23:24 40.58174 -74.23548 1923 ft 175 kts 33°
2026-04-25 23:24 40.59258 -74.22855 1819 ft 167 kts 34°
2026-04-25 23:25 40.60271 -74.22211 1612 ft 159 kts 34°
2026-04-25 23:25 40.61246 -74.21587 1467 ft 154 kts 34°
2026-04-25 23:25 40.62206 -74.20972 1331 ft 153 kts 33°
2026-04-25 23:25 40.63169 -74.20357 1125 ft 154 kts 33°
2026-04-25 23:26 40.64108 -74.19759 898 ft 149 kts 32°
2026-04-25 23:26 40.65028 -74.19165 692 ft 145 kts 33°
2026-04-25 23:26 40.65920 -74.18583 453 ft 142 kts 32°
2026-04-25 23:26 40.66819 -74.18033 256 ft 142 kts 30°
2026-04-25 23:27 40.67691 -74.17481 120 ft 137 kts 31°
2026-04-25 23:27 40.68527 -74.16944 22 ft 127 kts 31°
2026-04-25 23:27 40.69151 -74.16539 23 ft 70 kts 26°
2026-04-25 23:27 40.69435 -74.16454 23 ft 25 kts 356°
2026-04-25 23:28 40.69476 -74.16544 24 ft 10 kts 225°